Skip Page Navigation
NASA JPL Caltech
NASA Logo - Jet Propulsion Laboratory + View the NASA Portal
+ Center for Near-Earth Object Studies
JPL Home Earth Solar System Stars & Galaxies Technology
JPL Solar System Dynamics
BODIES ORBITS EPHEMERIDES TOOLS PHYSICAL DATA DISCOVERY FAQ SITE MAP
JPL Small-Body Database Browser
Search: [ help ]  
97377 (2000 AL67)
Classification: Main-belt Asteroid          SPK-ID: 2097377
Ephemeris | Orbit Diagram | Orbital Elements | Mission Design | Physical Parameters | Discovery Circumstances ]

[ show orbit diagram ]
Orbital Elements at Epoch 2459000.5 (2020-May-31.0) TDB
Reference: JPL 23 (heliocentric ecliptic J2000)
 Element Value Uncertainty (1-sigma)   Units 
e .05624517021276473 4.667e-08  
a 2.985860355422464 2.2234e-08 au
q 2.817920131500181 1.3746e-07 au
i 8.539872171683417 6.4626e-06 deg
node 312.8004202217045 3.7648e-05 deg
peri 331.4326313089373 7.2671e-05 deg
M 192.6928192343836 6.369e-05 deg
tp 2459876.319773307105
(2022-Oct-23.81977331)
0.00033571 TDB
period 1884.528308634048
5.16
2.105e-05
5.763e-08
d
yr
n .1910292343981485 2.1337e-09 deg/d
Q 3.153800579344746 2.3485e-08 au
  Orbit Determination Parameters
   # obs. used (total)      760  
   data-arc span      7327 days (20.06 yr)  
   first obs. used      2000-01-04  
   last obs. used      2020-01-26  
   planetary ephem.      DE431  
   SB-pert. ephem.      SB431-N16  
   condition code      0  
   norm. resid. RMS      .57084  
   source      ORB  
   producer      Otto Matic  
   solution date      2020-Feb-24 00:15:50  

Additional Information
 Earth MOID = 1.80497 au 
 Jupiter MOID = 2.02243 au 
 T_jup = 3.239 
[ hide covariance matrix ]
Orbital Elements at Epoch 2456668.5 (2014-Jan-11.0) TDB
Reference: JPL 23 (heliocentric ecliptic J2000)
 Element Value Uncertainty (1-sigma)   Units 
e .05928502130581507 4.6604e-08  
q 2.805812271932025 1.3778e-07 au
tp 2456096.127790361933
(2012-Jun-17.62779036)
0.00030985 TDB
node 312.9188663198722 3.7543e-05 deg
peri 329.0242694964467 6.9919e-05 deg
i 8.556744033367934 6.468e-06 deg
  Orbit Determination Parameters
   # obs. used (total)      760  
   data-arc span      7327 days (20.06 yr)  
   first obs. used      2000-01-04  
   last obs. used      2020-01-26  
   planetary ephem.      DE431  
   SB-pert. ephem.      SB431-N16  
   condition code      0  
   norm. resid. RMS      .57084  
   source      ORB  
   producer      Otto Matic  
   solution date      2020-Feb-24 00:15:50  

Additional Information
 Jupiter MOID = 2.02243 au 
 T_jup = 3.239 
Orbit Covariance (6×6)
  e q tp node peri i
e 2.171922864315114E-15 -6.349563583446162E-15 4.015076252492453E-12 4.110416130312421E-15 7.76765424910237E-13 1.62002623246974E-16
q -6.349563583446162E-15 1.898263091880422E-14 -1.109270806169838E-11 -1.026869906122448E-14 -2.133687927254032E-12 4.712082306715696E-16
tp 4.015076252492453E-12 -1.109270806169838E-11 9.600400114915936E-8 -1.523194243858769E-11 1.8317173374962E-8 -6.648811998245535E-12
node 4.110416130312421E-15 -1.026869906122448E-14 -1.523194243858769E-11 1.409480736365419E-9 -1.395959829541546E-9 8.467722203163079E-11
peri 7.76765424910237E-13 -2.133687927254032E-12 1.8317173374962E-8 -1.395959829541546E-9 4.888721349266798E-9 -8.496509842663022E-11
i 1.62002623246974E-16 4.712082306715696E-16 -6.648811998245535E-12 8.467722203163079E-11 -8.496509842663022E-11 4.183497317454376E-11

Ephemeris | Orbit Diagram | Orbital Elements | Mission Design | Physical Parameters | Discovery Circumstances ]

Physical Parameter Table
Parameter Symbol Value Units Sigma Reference Notes
absolute magnitude H 14.5   n/a MPO337971  
diameter diameter 4.109 km 0.972 urn:nasa:pds:neowise_diameters_albedos::2.0[mainbelt] (http://adsabs.harvard.edu/abs/2011ApJ...741...68M)  
geometric albedo albedo 0.219   0.089 urn:nasa:pds:neowise_diameters_albedos::2.0[mainbelt] (http://adsabs.harvard.edu/abs/2011ApJ...741...68M)  

97377 (2000 AL67)          Discovered 2000-Jan-04 by LINEAR at Socorro
Reference: 20050224/Numbers.arcLast Updated: 2005-02-28

Alternate Designations
 2000 AL67 = 2002 PT39 
Ephemeris | Orbit Diagram | Orbital Elements | Mission Design | Physical Parameters | Discovery Circumstances ]
ABOUT SSD CREDITS/AWARDS PRIVACY/COPYRIGHT GLOSSARY LINKS
FirstGov 2020-Jul-13 18:48 UT
(server date/time)  
NASA Home Page
Site Manager:   Ryan S. Park
Webmaster  Alan B. Chamberlin